Lancaster, PA

2:55 AM EDT on October 18, 2017 (GMT -0400)
Lancaster

Weather History for KLNS - February, 2014

Change the Weather History Date:

Wednesday, February 26, 2014

  Actual Average Record
Temperature  
Mean Temperature 20 °F -  
Max Temperature 27 °F 41 °F 62 °F (2002)
Min Temperature 12 °F 26 °F 8 °F (1990)
Degree Days  
Heating Degree Days 46    
Moisture  
Dew Point 12 °F    
Average Humidity 66    
Maximum Humidity 88    
Minimum Humidity 37    
Precipitation  
Precipitation 0.00 in - - ()
Sea Level Pressure  
Sea Level Pressure 29.92 in    
Wind  
Wind Speed 6 mph (West)    
Max Wind Speed 23 mph    
Max Gust Speed 29 mph    
Visibility 7 miles    
Events Snow    
Averages and records for this station are not official NWS values.
T = Trace of Precipitation, MM = Missing Value Source: NWS Daily Summary

Daily Weather History Graph

Daily Weather History Graph

Search for Another Location

Airport or City:

Trip Planner

Search our weather history database for the weather conditions in past years. The results will help you decide how hot, cold, wet, or windy it might be!

Date:

Astronomy

Feb. 26, 2014 Rise Set
Actual Time 6:43 AM EST 5:53 PM EST
Civil Twilight 6:15 AM EST 6:20 PM EST
Nautical Twilight 5:44 AM EST 6:52 PM EST
Astronomical Twilight 5:12 AM EST 7:23 PM EST
Moon 4:27 AM EST (2/26) 3:05 PM EST (2/26)
Length of Visible Light 12h 05m
Length of Day
11h 10m
Waning Crescent, 10% of the Moon is Illuminated
Feb 26
Waning Crescent
Mar 1
New
Mar 8
First Quarter
Mar 16
Full
Mar 23
Last Quarter

Hourly Weather History & Observations

Time (EST) Temp. Windchill Dew Point Humidity Pressure Visibility Wind Dir Wind Speed Gust Speed Precip Events Conditions
1:53 AM 19.9 °F - 12.0 °F 71% 29.97 in 10.0 mi Calm Calm - N/A   Overcast
2:53 AM 21.0 °F - 12.9 °F 71% 29.94 in 9.0 mi Calm Calm - N/A   Clear
3:53 AM 21.0 °F - 14.0 °F 74% 29.92 in 9.0 mi Calm Calm - N/A   Overcast
4:53 AM 21.9 °F - 15.1 °F 75% 29.90 in 8.0 mi Calm Calm - N/A   Overcast
5:53 AM 26.1 °F 16.2 °F 16.0 °F 66% 29.90 in 10.0 mi WSW 10.4 mph - N/A   Overcast
6:53 AM 24.1 °F 16.0 °F 19.0 °F 81% 29.90 in 2.5 mi WSW 6.9 mph - 0.00 in Snow Light Snow
7:02 AM 24.1 °F 17.0 °F 19.9 °F 84% 29.89 in 1.8 mi WSW 5.8 mph - 0.00 in Snow Light Snow
7:17 AM 24.1 °F 17.0 °F 21.0 °F 88% 29.89 in 2.0 mi WSW 5.8 mph - 0.00 in Snow Light Snow
7:53 AM 25.0 °F 18.1 °F 21.0 °F 85% 29.92 in 1.8 mi SW 5.8 mph - 0.00 in Snow Light Snow
8:00 AM 25.0 °F 16.3 °F 21.0 °F 85% 29.91 in 0.8 mi WSW 8.1 mph - 0.00 in Snow Light Snow
8:19 AM 25.0 °F 17.1 °F 21.0 °F 85% 29.91 in 2.0 mi WSW 6.9 mph - 0.00 in Snow Light Snow
8:53 AM 25.0 °F 16.3 °F 21.0 °F 85% 29.95 in 1.8 mi WSW 8.1 mph - 0.00 in Snow Light Snow
9:13 AM 26.1 °F 15.6 °F 21.9 °F 84% 29.94 in 0.8 mi West 11.5 mph - 0.00 in Snow Light Snow
9:29 AM 24.1 °F 11.5 °F 19.0 °F 81% 29.95 in 1.0 mi NW 15.0 mph - 0.00 in Snow Light Snow
9:53 AM 24.1 °F 12.0 °F 19.0 °F 81% 29.98 in 2.0 mi WNW 13.8 mph - 0.00 in Snow Light Snow
10:11 AM 24.1 °F 12.0 °F 18.0 °F 77% 29.96 in 3.0 mi WNW 13.8 mph - 0.00 in Snow Light Snow
10:53 AM 27.0 °F 13.9 °F 15.1 °F 61% 29.96 in 10.0 mi NW 18.4 mph - 0.00 in   Overcast
11:53 AM 26.1 °F 12.3 °F 12.0 °F 55% 29.96 in 10.0 mi WNW 19.6 mph 28.8 mph 0.00 in   Partly Cloudy
12:53 PM 25.0 °F 10.6 °F 7.0 °F 46% 29.95 in 10.0 mi NW 20.7 mph 27.6 mph N/A   Scattered Clouds
1:53 PM 25.0 °F 9.9 °F 3.9 °F 41% 29.91 in 10.0 mi WNW 23.0 mph - N/A   Clear
2:53 PM 25.0 °F 12.6 °F 3.9 °F 41% 29.91 in 10.0 mi NW 15.0 mph 24.2 mph N/A   Clear
3:53 PM 24.1 °F 11.0 °F 1.9 °F 38% 29.89 in 10.0 mi WNW 16.1 mph 23.0 mph N/A   Clear
4:53 PM 24.1 °F 11.5 °F 1.0 °F 37% 29.88 in 10.0 mi NW 15.0 mph - N/A   Clear
5:53 PM 21.0 °F 9.9 °F -0.0 °F 40% 29.88 in 10.0 mi NW 10.4 mph - N/A   Clear
6:53 PM 18.0 °F 8.7 °F 1.9 °F 50% 29.89 in 10.0 mi NW 6.9 mph - N/A   Clear
7:53 PM 18.0 °F - -0.0 °F 45% 29.88 in 10.0 mi Calm Calm - N/A   Clear
8:53 PM 16.0 °F - 1.0 °F 52% 29.89 in 10.0 mi Calm Calm - N/A   Clear
9:53 PM 14.0 °F - 1.0 °F 56% 29.90 in 10.0 mi Calm Calm - N/A   Clear
10:53 PM 12.9 °F 5.2 °F 3.0 °F 65% 29.88 in 10.0 mi SE 4.6 mph - N/A   Clear
11:53 PM 12.9 °F - 3.9 °F 67% 29.87 in 9.0 mi Calm Calm - N/A   Clear